Flag for U.S.A. Weather past 2 weeks in Norfolk, Virginia, U.S.A.

Now
78 °F

Sunny.


Feels Like: 80 °F
Forecast: 74 / 91 °F
Wind: 9 mph from West

Location: Norfolk Naval Air Station

Current Time: Jul 1, 2015 at 11:24:41 AM

Latest Report: Jul 1, 2015 at 10:59 AM


Visibility: 7 mi

Pressure: 29.93 "Hg

Humidity: 69%

Dew point: 67 °F

Location of NorfolkLocation

Historic Weather in Norfolk — Graph

°F

Norfolk temperature yesterday

Maximum temperature yesterday: 90 °F (at 1:59 PM)
Minimum temperature yesterday: 71 °F (at 11:59 PM)
Average temperature yesterday: 81 °F

Past Weeks' High & Low Weather Summary

 TemperatureHumidityPressure
High98 °F (Jun 16, 2:59 PM)100% (Jun 16, 11:59 PM)30.13 "Hg (Jun 16, 11:59 PM)
Low62 °F (Jun 29, 4:59 AM)34% (Jun 16, 2:59 PM)29.70 "Hg (Jun 28, 2:59 AM)
Average80 °F71%29.97 "Hg
* Reported Jun 16 9:59 AM — Jul 1 9:59 AM, Norfolk, Weather by CustomWeather, © 2015

Note: Actual official high and low records may vary slightly from our data, if they occured in-between our weather recording intervals... More about our weather records

Advertising

Norfolk weather history for previous 24 hours

 ConditionsComfort  
Time TempWeatherWind HumidityBarometerVisibility
9:59 AM
Wed, Jul 1
77 °FPassing clouds.9 mph69%29.91 "Hg7 mi
8:59 AM74 °FScattered clouds.9 mph82%29.92 "Hg7 mi
7:59 AM72 °FPassing clouds.13 mph84%29.91 "Hg7 mi
6:59 AM72 °FScattered clouds.12 mph81%29.91 "Hg8 mi
5:59 AM72 °FPartly cloudy.8 mph81%29.90 "Hg9 mi
4:59 AM73 °FPassing clouds.12 mph79%29.89 "Hg10 mi
3:59 AM73 °FPartly cloudy.8 mph79%29.89 "Hg10 mi
2:59 AM74 °FPassing clouds.9 mph76%29.88 "Hg10 mi
1:59 AM73 °FPassing clouds.9 mph79%29.88 "Hg10 mi
12:59 AM71 °FPartly cloudy.5 mph81%29.88 "Hg10 mi
11:59 PM
Tue, Jun 30
71 °FLight rain. Mostly cloudy.9 mph84%29.91 "Hg7 mi
10:59 PM78 °FMostly cloudy.21 mph66%29.94 "Hg9 mi
9:59 PM79 °FMostly cloudy.10 mph58%29.89 "Hg10 mi
8:59 PM84 °FBroken clouds.10 mph59%29.88 "Hg9 mi
7:59 PM85 °FBroken clouds.7 mph55%29.85 "Hg8 mi
6:59 PM87 °FPartly sunny.15 mph51%29.85 "Hg8 mi
5:59 PM88 °FPartly sunny.10 mph50%29.84 "Hg8 mi
4:59 PM89 °FPartly sunny.12 mph48%29.85 "Hg8 mi
3:59 PM89 °FPartly sunny.10 mph45%29.87 "Hg8 mi
2:59 PM90 °FBroken clouds.13 mph45%29.89 "Hg9 mi
1:59 PM90 °FScattered clouds.14 mph43%29.91 "Hg9 mi
12:59 PM89 °FBroken clouds.10 mph43%29.93 "Hg10 mi
11:59 AM87 °FScattered clouds.9 mph48%29.94 "Hg9 mi
Weather by CustomWeather, © 2015

See weather overviewHow to use our weather pages